Hourly Weather Roundup
Issued by NWS Central Illinois

Home | Current Version | Previous Version | Text Only | Print | Product List | Glossary On
Versions: 1 2 3 4 5 6 7 8 9 10 11 12 13 14 15 16 17 18 19 20 21 22 23 24 25 26 27 28 29 30 31 32 33 34 35 36 37 38 39 40 41 42 43 44 45 46 47 48 49 50
000
NZUS43 KILX 261910
HWRILX

AREA WEATHER ROUNDUP
NATIONAL WEATHER SERVICE, LINCOLN IL
100 PM CST WED NOV 26 2014


CITY           SKY/WX    TMP DP  RH WIND       PRES   REMARKS
BLOOMINGTON    CLOUDY    28  25  89 SE13      30.06F WCI  17
CHAMPAIGN      CLOUDY    28  24  85 E9        30.07F WCI  19
DECATUR        CLOUDY    29  26  89 E13       30.05F FOG     WCI  19
FLORA          MOSUNNY   35  30  81 E10       30.04F WCI  27
GALESBURG      CLOUDY    31  27  86 E13       30.03R WCI  21
JACKSONVILLE   CLOUDY    35  30  83 E12G20    29.99S WCI  27
LACON          CLOUDY    29  24  81 E9        30.07F WCI  21
LAWRENCEVILLE  MOSUNNY   37  28  70 E8        30.06F WCI  31
LITCHFIELD     CLOUDY    33  27  78 SE8       29.99F WCI  27
$$


CITY           SKY/WX    TMP DP  RH WIND       PRES   REMARKS
LINCOLN        CLOUDY    32  28  86 E13       30.06S WCI  22
MACOMB         CLOUDY    32  30  94 E16       30.02F FOG     WCI  21
MATTOON        CLOUDY    29  24  82 E6        30.05F WCI  23
MT CARMEL AP   MOSUNNY   39  30  70 SE3       30.05F
OLNEY-NOBLE AP PTSUNNY   34  30  86 E8        30.05F WCI  27
PARIS          MOSUNNY   32  26  78 E5        30.06F WCI  27
PEORIA         CLOUDY    32  25  75 E12       30.06S WCI  23
PONTIAC        CLOUDY    28  24  84 SE10      30.10S WCI  19
RANTOUL        CLOUDY    30  24  79 E9        30.07F WCI  22
ROBINSON       SUNNY     35  28  74 SE8       30.08F WCI  29
SPRINGFIELD    LGT SNOW  33  30  88 E14       30.02F FOG     WCI  23
TAYLORVILLE    CLOUDY    32  28  86 E9        30.02S WCI  24
$$

...REGIONAL REPORTS...


CITY           SKY/WX    TMP DP  RH WIND       PRES   REMARKS
CHICAGO O`HARE CLOUDY    28  21  75 E8        30.10F WCI  20
KANKAKEE       CLOUDY   N/A N/A N/A E8        30.10F
MOLINE         CLOUDY    29  24  82 E15       30.05F WCI  18
MOUNT VERNON   CLOUDY    37  28  70 E8        30.01F WCI  31
PITTSFIELD     CLOUDY    32  31  96 SE7       29.96F VSB 1   WCI  26
QUINCY         SNOW      31  30  96 SE8       29.95S VSB 1/4 WCI  23
ROCKFORD       CLOUDY    26  19  74 SE5       30.12F WCI  20
$$


CITY           SKY/WX    TMP DP  RH WIND       PRES   REMARKS
BURLINGTON     LGT SNOW  32  29  88 E14G23    29.98F FOG     WCI  22
CEDAR RAPIDS   CLOUDY    29  26  89 E14       30.01R WCI  18
DES MOINES     FLURRIES  32  27  81 NE9       29.99R WCI  24
KIRKSVILLE     FOG       33  33 100 SE6       29.91S VSB 3/4 WCI  28
OTTUMWA        LGT SNOW  31  28  89 E12       29.95R FOG     WCI  22
ST LOUIS       LGT SNOW  36  30  80 SE9       29.98S VSB 3/4 WCI  29
$$


CITY           SKY/WX    TMP DP  RH WIND       PRES   REMARKS
TERRE HAUTE    SUNNY     33  24  69 E6        30.06F WCI  28
EVANSVILLE     SUNNY     38  28  67 SE5       30.06F WCI  34
INDIANAPOLIS   PTSUNNY   32  22  66 E7        30.06F WCI  26
LAFAYETTE      PTSUNNY   29  21  72 SE5       30.09F WCI  24
MADISON        CLOUDY    23  18  81 N3        30.12F HAZE
MILWAUKEE      CLOUDY    28  20  71 CALM      30.12F
$$




USA.gov is the U.S. government's official web portal to all federal, state and local government web resources and services.